Location: ????????
(60.5616°N, 46.8254°E)
Time: 04:58:15
(UTC+00:00)

Cosmos 1992 Rocket - Pass Details

Date: 18 February 2020
Orbit: 759 x 766 km, 74.0° (Epoch: 29 March)

Event Time Altitude Azimuth Distance (km) Brightness Sun altitude
Rises 16:12:52 0° 211° (SSW) 3,226 7.5 -18.2°
Reaches altitude 10° 16:15:14 10° 212° (SSW) 2,304 6.8 -18.5°
Maximum altitude 16:20:29 89° 301° (WNW) 776 4.0 -19.2°
Drops below altitude 10° 16:25:46 10° 33° (NNE) 2,319 6.3 -19.8°
Enters shadow 16:26:49 - 34° (NNE) 2,725 6.6 -19.9°
